Time,TemperatureF,DewpointF,PressureIn,WindDirection,WindDirectionDegrees,WindSpeedMPH,WindSpeedGustMPH,Humidity,HourlyPrecipIn,Conditions,Clouds,dailyrainin,SoftwareType,DateUTC
2013-03-25 00:03:00,31.0,30.0,29.61,South,187,0.0,0.0,96,-99.99,,,-99.99,,2013-03-25 04:03:00,
2013-03-25 00:12:00,31.0,30.0,29.61,South,187,0.0,0.0,96,-99.99,,,-99.99,,2013-03-25 04:12:00,
2013-03-25 00:22:00,31.0,30.0,29.62,South,187,0.0,0.0,96,-99.99,,,-99.99,,2013-03-25 04:22:00,
2013-03-25 00:33:00,31.0,30.0,29.63,South,188,0.0,0.0,96,-99.99,,,-99.99,,2013-03-25 04:33:00,
2013-03-25 00:43:00,31.0,30.0,29.63,South,188,0.0,0.0,96,-99.99,,,-99.99,,2013-03-25 04:43:00,
2013-03-25 00:52:00,31.0,30.0,29.63,South,188,0.0,0.0,96,-99.99,,,-99.99,,2013-03-25 04:52:00,
2013-03-25 01:03:00,31.0,30.0,29.62,South,188,0.0,0.0,96,-99.99,,,-99.99,,2013-03-25 05:03:00,
2013-03-25 01:12:00,31.0,30.0,29.62,South,188,0.0,0.0,96,-99.99,,,-99.99,,2013-03-25 05:12:00,
2013-03-25 01:22:00,31.0,30.0,29.63,South,188,0.0,0.0,96,-99.99,,,-99.99,,2013-03-25 05:22:00,
2013-03-25 01:33:00,31.0,30.0,29.62,South,188,0.0,0.0,96,-99.99,,,-99.99,,2013-03-25 05:33:00,
2013-03-25 01:42:00,31.0,30.0,29.62,South,188,0.0,0.0,96,-99.99,,,-99.99,,2013-03-25 05:42:00,
2013-03-25 01:52:00,31.0,30.0,29.62,South,188,0.0,0.0,96,-99.99,,,-99.99,,2013-03-25 05:52:00,
2013-03-25 02:02:00,31.0,30.0,29.60,South,188,0.0,0.0,96,-99.99,,,-99.99,,2013-03-25 06:02:00,
2013-03-25 02:12:00,31.0,30.0,29.60,South,188,0.0,0.0,96,-99.99,,,-99.99,,2013-03-25 06:12:00,
2013-03-25 02:22:00,31.0,30.0,29.60,South,188,0.0,0.0,96,-99.99,,,-99.99,,2013-03-25 06:22:00,
2013-03-25 02:32:00,30.0,29.0,29.59,South,188,0.0,0.0,96,-99.99,,,-99.99,,2013-03-25 06:32:00,
2013-03-25 02:42:00,30.0,29.0,29.59,South,188,0.0,0.0,96,-99.99,,,-99.99,,2013-03-25 06:42:00,
2013-03-25 02:52:00,30.0,29.0,29.59,South,188,0.0,0.0,96,-99.99,,,-99.99,,2013-03-25 06:52:00,
2013-03-25 03:02:00,30.0,29.0,29.58,South,189,0.0,0.0,96,-99.99,,,-99.99,,2013-03-25 07:02:00,
2013-03-25 03:12:00,30.0,29.0,29.58,South,189,0.0,0.0,96,-99.99,,,-99.99,,2013-03-25 07:12:00,
2013-03-25 03:22:00,30.0,29.0,29.58,South,188,0.0,0.0,96,-99.99,,,-99.99,,2013-03-25 07:22:00,
2013-03-25 03:32:00,30.0,29.0,29.57,South,188,0.0,0.0,96,-99.99,,,-99.99,,2013-03-25 07:32:00,
2013-03-25 03:42:00,30.0,29.0,29.57,South,188,0.0,0.0,96,-99.99,,,-99.99,,2013-03-25 07:42:00,
2013-03-25 03:52:00,30.0,29.0,29.58,South,188,0.0,0.0,96,-99.99,,,-99.99,,2013-03-25 07:52:00,
2013-03-25 04:03:00,30.0,29.0,29.58,South,188,0.0,0.0,96,-99.99,,,-99.99,,2013-03-25 08:03:00,
2013-03-25 04:12:00,30.0,29.0,29.58,South,188,0.0,0.0,96,-99.99,,,-99.99,,2013-03-25 08:12:00,
2013-03-25 04:23:00,30.0,29.0,29.58,South,188,0.0,0.0,97,-99.99,,,-99.99,,2013-03-25 08:23:00,
2013-03-25 04:32:00,30.0,29.0,29.57,South,188,0.0,0.0,97,-99.99,,,-99.99,,2013-03-25 08:32:00,
2013-03-25 04:43:00,30.0,29.0,29.57,South,188,0.0,0.0,97,-99.99,,,-99.99,,2013-03-25 08:43:00,
2013-03-25 04:52:00,30.0,29.0,29.57,South,189,0.0,0.0,97,-99.99,,,-99.99,,2013-03-25 08:52:00,
2013-03-25 05:02:00,30.0,29.0,29.56,South,188,0.0,0.0,96,-99.99,,,-99.99,,2013-03-25 09:02:00,
2013-03-25 05:12:00,30.0,29.0,29.56,South,188,0.0,0.0,96,-99.99,,,-99.99,,2013-03-25 09:12:00,
2013-03-25 05:22:00,30.0,29.0,29.57,South,188,0.0,0.0,96,-99.99,,,-99.99,,2013-03-25 09:22:00,
2013-03-25 05:33:00,30.0,29.0,29.56,South,188,0.0,0.0,97,-99.99,,,-99.99,,2013-03-25 09:33:00,
2013-03-25 05:43:00,30.0,29.0,29.56,South,188,0.0,0.0,97,-99.99,,,-99.99,,2013-03-25 09:43:00,
2013-03-25 05:52:00,30.0,29.0,29.55,South,188,0.0,0.0,97,-99.99,,,-99.99,,2013-03-25 09:52:00,
2013-03-25 06:03:00,30.0,29.0,29.55,South,188,0.0,0.0,97,-99.99,,,-99.99,,2013-03-25 10:03:00,
2013-03-25 06:12:00,30.0,29.0,29.55,South,188,0.0,0.0,97,-99.99,,,-99.99,,2013-03-25 10:12:00,
2013-03-25 06:22:00,30.0,29.0,29.55,South,188,0.0,0.0,97,-99.99,,,-99.99,,2013-03-25 10:22:00,
2013-03-25 06:33:00,30.0,29.0,29.55,South,188,0.0,0.0,97,-99.99,,,-99.99,,2013-03-25 10:33:00,
2013-03-25 06:42:00,30.0,29.0,29.55,South,188,0.0,0.0,97,-99.99,,,-99.99,,2013-03-25 10:42:00,
2013-03-25 06:53:00,30.0,29.0,29.55,South,188,0.0,0.0,97,-99.99,,,-99.99,,2013-03-25 10:53:00,
2013-03-25 07:03:00,30.0,29.0,29.54,South,188,0.0,0.0,97,-99.99,,,-99.99,,2013-03-25 11:03:00,
2013-03-25 07:12:00,30.0,29.0,29.54,South,188,0.0,0.0,97,-99.99,,,-99.99,,2013-03-25 11:12:00,
2013-03-25 07:23:00,30.0,29.0,29.55,South,188,0.0,0.0,97,-99.99,,,-99.99,,2013-03-25 11:23:00,
2013-03-25 07:32:00,30.0,29.0,29.55,South,188,0.0,0.0,97,-99.99,,,-99.99,,2013-03-25 11:32:00,
2013-03-25 07:42:00,30.0,29.0,29.55,South,188,0.0,0.0,97,-99.99,,,-99.99,,2013-03-25 11:42:00,
2013-03-25 07:52:00,30.0,29.0,29.55,South,188,0.0,0.0,97,-99.99,,,-99.99,,2013-03-25 11:52:00,
2013-03-25 08:03:00,30.0,29.0,29.55,South,188,0.0,0.0,97,-99.99,,,-99.99,,2013-03-25 12:03:00,
2013-03-25 08:13:00,30.0,29.0,29.55,South,188,0.0,0.0,97,-99.99,,,-99.99,,2013-03-25 12:13:00,
2013-03-25 08:23:00,31.0,30.0,29.55,South,188,0.0,0.0,97,-99.99,,,-99.99,,2013-03-25 12:23:00,
2013-03-25 08:33:00,31.0,30.0,29.56,South,188,0.0,0.0,97,-99.99,,,-99.99,,2013-03-25 12:33:00,
2013-03-25 08:43:00,31.0,30.0,29.56,South,188,0.0,0.0,97,-99.99,,,-99.99,,2013-03-25 12:43:00,
2013-03-25 08:53:00,31.0,30.0,29.56,South,188,0.0,0.0,97,-99.99,,,-99.99,,2013-03-25 12:53:00,
2013-03-25 09:03:00,31.0,30.0,29.56,South,188,0.0,0.0,97,-99.99,,,-99.99,,2013-03-25 13:03:00,
2013-03-25 09:13:00,31.0,30.0,29.56,South,188,0.0,0.0,97,-99.99,,,-99.99,,2013-03-25 13:13:00,
2013-03-25 09:23:00,32.0,31.0,29.57,South,189,0.0,0.0,97,-99.99,,,-99.99,,2013-03-25 13:23:00,
2013-03-25 09:32:00,32.0,31.0,29.57,South,188,0.0,0.0,97,-99.99,,,-99.99,,2013-03-25 13:32:00,
2013-03-25 09:43:00,32.0,31.0,29.57,South,188,0.0,0.0,97,-99.99,,,-99.99,,2013-03-25 13:43:00,
2013-03-25 09:53:00,33.0,32.0,29.56,ENE,75,2.0,0.0,95,-99.99,,,-99.99,,2013-03-25 13:53:00,
2013-03-25 10:03:00,33.0,31.0,29.56,ENE,74,1.0,0.0,94,-99.99,,,-99.99,,2013-03-25 14:03:00,
2013-03-25 10:12:00,33.0,31.0,29.56,ENE,74,1.0,0.0,94,-99.99,,,-99.99,,2013-03-25 14:12:00,
2013-03-25 10:23:00,33.0,31.0,29.56,ENE,68,2.0,0.0,94,-99.99,,,-99.99,,2013-03-25 14:23:00,
2013-03-25 10:32:00,34.0,32.0,29.56,ESE,117,1.0,0.0,93,-99.99,,,-99.99,,2013-03-25 14:32:00,
2013-03-25 10:43:00,34.0,32.0,29.56,ESE,117,1.0,0.0,93,-99.99,,,-99.99,,2013-03-25 14:43:00,
2013-03-25 10:53:00,35.0,32.0,29.57,East,82,0.0,0.0,89,-99.99,,,-99.99,,2013-03-25 14:53:00,
2013-03-25 11:03:00,35.0,32.0,29.57,SE,143,1.0,0.0,87,-99.99,,,-99.99,,2013-03-25 15:03:00,
2013-03-25 11:13:00,35.0,32.0,29.57,SE,143,1.0,0.0,87,-99.99,,,-99.99,,2013-03-25 15:13:00,
2013-03-25 11:23:00,37.0,32.0,29.57,NE,53,1.0,0.0,83,-99.99,,,-99.99,,2013-03-25 15:23:00,
2013-03-25 11:33:00,38.0,32.0,29.57,ESE,105,6.0,0.0,79,-99.99,,,-99.99,,2013-03-25 15:33:00,
2013-03-25 11:43:00,38.0,32.0,29.57,ESE,105,6.0,0.0,79,-99.99,,,-99.99,,2013-03-25 15:43:00,
2013-03-25 11:53:00,38.0,32.0,29.57,ENE,77,2.0,0.0,78,-99.99,,,-99.99,,2013-03-25 15:53:00,
2013-03-25 12:03:00,39.0,31.0,29.57,NE,43,3.0,0.0,74,-99.99,,,-99.99,,2013-03-25 16:03:00,
2013-03-25 12:12:00,39.0,31.0,29.57,NE,43,3.0,0.0,74,-99.99,,,-99.99,,2013-03-25 16:12:00,
2013-03-25 12:23:00,39.0,31.0,29.57,NE,43,3.0,0.0,74,-99.99,,,-99.99,,2013-03-25 16:23:00,
2013-03-25 12:33:00,40.0,30.0,29.57,East,85,4.0,20.0,66,-99.99,,,-99.99,,2013-03-25 16:33:00,
2013-03-25 12:43:00,40.0,30.0,29.57,East,85,4.0,20.0,66,-99.99,,,-99.99,,2013-03-25 16:43:00,
2013-03-25 12:53:00,39.0,29.0,29.57,ESE,108,3.0,17.0,67,-99.99,,,-99.99,,2013-03-25 16:53:00,
2013-03-25 13:03:00,39.0,28.0,29.57,ESE,102,2.0,0.0,65,-99.99,,,-99.99,,2013-03-25 17:03:00,
2013-03-25 13:13:00,39.0,28.0,29.57,ESE,102,2.0,0.0,65,-99.99,,,-99.99,,2013-03-25 17:13:00,
2013-03-25 13:24:00,40.0,24.0,29.58,SE,124,3.0,21.0,53,-99.99,,,-99.99,,2013-03-25 17:24:00,
2013-03-25 13:33:00,41.0,26.0,29.58,SE,132,4.0,18.0,54,-99.99,,,-99.99,,2013-03-25 17:33:00,
2013-03-25 13:43:00,41.0,26.0,29.58,SE,132,4.0,18.0,54,-99.99,,,-99.99,,2013-03-25 17:43:00,
2013-03-25 13:53:00,41.0,26.0,29.58,NNE,13,4.0,13.0,54,-99.99,,,-99.99,,2013-03-25 17:53:00,
2013-03-25 14:03:00,41.0,25.0,29.58,ESE,110,2.0,0.0,52,-99.99,,,-99.99,,2013-03-25 18:03:00,
2013-03-25 14:13:00,41.0,25.0,29.58,ESE,110,2.0,0.0,52,-99.99,,,-99.99,,2013-03-25 18:13:00,
2013-03-25 14:23:00,41.0,25.0,29.58,NNE,23,4.0,23.0,53,-99.99,,,-99.99,,2013-03-25 18:23:00,
2013-03-25 14:33:00,42.0,26.0,29.58,North,358,2.0,0.0,52,-99.99,,,-99.99,,2013-03-25 18:33:00,
2013-03-25 14:43:00,42.0,26.0,29.58,North,358,2.0,0.0,52,-99.99,,,-99.99,,2013-03-25 18:43:00,
2013-03-25 14:53:00,40.0,25.0,29.58,SE,146,8.0,14.0,54,-99.99,,,-99.99,,2013-03-25 18:53:00,
2013-03-25 15:03:00,40.0,25.0,29.58,SE,128,5.0,0.0,54,-99.99,,,-99.99,,2013-03-25 19:03:00,
2013-03-25 15:13:00,40.0,25.0,29.58,SE,128,5.0,0.0,54,-99.99,,,-99.99,,2013-03-25 19:13:00,
2013-03-25 15:23:00,41.0,25.0,29.58,SE,125,3.0,12.0,52,-99.99,,,-99.99,,2013-03-25 19:23:00,
2013-03-25 15:33:00,43.0,27.0,29.58,NNE,28,4.0,0.0,52,-99.99,,,-99.99,,2013-03-25 19:33:00,
2013-03-25 15:43:00,43.0,27.0,29.58,NNE,28,4.0,0.0,52,-99.99,,,-99.99,,2013-03-25 19:43:00,
2013-03-25 15:53:00,41.0,24.0,29.58,ESE,115,3.0,13.0,51,-99.99,,,-99.99,,2013-03-25 19:53:00,
2013-03-25 16:02:00,42.0,25.0,29.58,ESE,115,3.0,0.0,51,-99.99,,,-99.99,,2013-03-25 20:02:00,
2013-03-25 16:12:00,42.0,25.0,29.58,ESE,115,3.0,0.0,51,-99.99,,,-99.99,,2013-03-25 20:12:00,
2013-03-25 16:22:00,42.0,26.0,29.59,South,181,4.0,0.0,53,-99.99,,,-99.99,,2013-03-25 20:22:00,
2013-03-25 16:32:00,42.0,27.0,29.59,NE,56,7.0,16.0,54,-99.99,,,-99.99,,2013-03-25 20:32:00,
2013-03-25 16:42:00,42.0,27.0,29.59,NE,56,7.0,16.0,54,-99.99,,,-99.99,,2013-03-25 20:42:00,
2013-03-25 16:52:00,41.0,29.0,29.60,SE,130,3.0,0.0,61,-99.99,,,-99.99,,2013-03-25 20:52:00,
2013-03-25 17:03:00,40.0,27.0,29.61,NE,53,3.0,0.0,59,-99.99,,,-99.99,,2013-03-25 21:03:00,
2013-03-25 17:13:00,40.0,27.0,29.61,NE,53,3.0,0.0,59,-99.99,,,-99.99,,2013-03-25 21:13:00,
2013-03-25 17:22:00,37.0,31.0,29.62,East,94,4.0,0.0,80,-99.99,,,-99.99,,2013-03-25 21:22:00,
2013-03-25 17:33:00,39.0,31.0,29.62,East,82,1.0,0.0,72,-99.99,,,-99.99,,2013-03-25 21:33:00,
2013-03-25 17:43:00,39.0,31.0,29.62,East,82,1.0,0.0,72,-99.99,,,-99.99,,2013-03-25 21:43:00,
2013-03-25 17:52:00,40.0,27.0,29.63,SE,124,5.0,0.0,59,-99.99,,,-99.99,,2013-03-25 21:52:00,
2013-03-25 18:03:00,40.0,27.0,29.63,NW,305,2.0,0.0,59,-99.99,,,-99.99,,2013-03-25 22:03:00,
2013-03-25 18:13:00,40.0,27.0,29.63,NW,305,2.0,0.0,59,-99.99,,,-99.99,,2013-03-25 22:13:00,
2013-03-25 18:23:00,40.0,26.0,29.64,SE,124,2.0,0.0,57,-99.99,,,-99.99,,2013-03-25 22:23:00,
2013-03-25 18:33:00,40.0,26.0,29.65,SE,135,2.0,0.0,57,-99.99,,,-99.99,,2013-03-25 22:33:00,
2013-03-25 18:42:00,40.0,26.0,29.65,SE,135,2.0,0.0,57,-99.99,,,-99.99,,2013-03-25 22:42:00,
2013-03-25 18:52:00,40.0,23.0,29.66,SE,141,4.0,0.0,51,-99.99,,,-99.99,,2013-03-25 22:52:00,
2013-03-25 19:03:00,39.0,22.0,29.66,SE,134,4.0,12.0,51,-99.99,,,-99.99,,2013-03-25 23:03:00,
2013-03-25 19:12:00,39.0,22.0,29.66,SE,134,4.0,12.0,51,-99.99,,,-99.99,,2013-03-25 23:12:00,
2013-03-25 19:23:00,38.0,22.0,29.67,ESE,117,6.0,0.0,52,-99.99,,,-99.99,,2013-03-25 23:23:00,
2013-03-25 19:32:00,38.0,24.0,29.68,ESE,121,2.0,13.0,56,-99.99,,,-99.99,,2013-03-25 23:32:00,
2013-03-25 19:43:00,38.0,24.0,29.68,ESE,121,2.0,13.0,56,-99.99,,,-99.99,,2013-03-25 23:43:00,
2013-03-25 19:53:00,37.0,25.0,29.70,East,90,3.0,0.0,62,-99.99,,,-99.99,,2013-03-25 23:53:00,
2013-03-25 20:02:00,37.0,25.0,29.71,ESE,114,4.0,15.0,62,-99.99,,,-99.99,,2013-03-26 00:02:00,
2013-03-25 20:12:00,37.0,25.0,29.71,ESE,114,4.0,15.0,62,-99.99,,,-99.99,,2013-03-26 00:12:00,
2013-03-25 20:22:00,37.0,27.0,29.72,East,94,3.0,0.0,66,-99.99,,,-99.99,,2013-03-26 00:22:00,
2013-03-25 20:32:00,36.0,26.0,29.73,East,84,3.0,0.0,68,-99.99,,,-99.99,,2013-03-26 00:32:00,
2013-03-25 20:42:00,36.0,26.0,29.73,East,84,3.0,0.0,68,-99.99,,,-99.99,,2013-03-26 00:42:00,
2013-03-25 20:52:00,36.0,27.0,29.72,East,96,2.0,0.0,69,-99.99,,,-99.99,,2013-03-26 00:52:00,
2013-03-25 21:02:00,35.0,26.0,29.73,ESE,115,5.0,0.0,68,-99.99,,,-99.99,,2013-03-26 01:02:00,
2013-03-25 21:12:00,35.0,26.0,29.73,ESE,115,5.0,0.0,68,-99.99,,,-99.99,,2013-03-26 01:12:00,
2013-03-25 21:23:00,35.0,26.0,29.74,ENE,71,2.0,0.0,68,-99.99,,,-99.99,,2013-03-26 01:23:00,
2013-03-25 21:32:00,35.0,25.0,29.74,East,98,4.0,0.0,67,-99.99,,,-99.99,,2013-03-26 01:32:00,
2013-03-25 21:42:00,35.0,25.0,29.74,East,98,4.0,0.0,67,-99.99,,,-99.99,,2013-03-26 01:42:00,
2013-03-25 21:53:00,36.0,25.0,29.75,ENE,75,4.0,0.0,64,-99.99,,,-99.99,,2013-03-26 01:53:00,
2013-03-25 22:02:00,36.0,25.0,29.75,ENE,75,4.0,0.0,64,-99.99,,,-99.99,,2013-03-26 02:02:00,
2013-03-25 22:12:00,36.0,25.0,29.75,ENE,75,4.0,0.0,64,-99.99,,,-99.99,,2013-03-26 02:12:00,
2013-03-25 22:22:00,35.0,26.0,29.76,NE,47,2.0,0.0,69,-99.99,,,-99.99,,2013-03-26 02:22:00,
2013-03-25 22:32:00,35.0,27.0,29.76,East,84,1.0,0.0,71,-99.99,,,-99.99,,2013-03-26 02:32:00,
2013-03-25 22:43:00,35.0,27.0,29.76,East,84,1.0,0.0,71,-99.99,,,-99.99,,2013-03-26 02:43:00,
2013-03-25 22:52:00,35.0,27.0,29.76,East,84,1.0,0.0,71,-99.99,,,-99.99,,2013-03-26 02:52:00,
2013-03-25 23:02:00,36.0,25.0,29.76,ESE,110,2.0,14.0,65,-99.99,,,-99.99,,2013-03-26 03:02:00,
2013-03-25 23:12:00,36.0,25.0,29.76,ESE,110,2.0,14.0,65,-99.99,,,-99.99,,2013-03-26 03:12:00,
2013-03-25 23:22:00,36.0,25.0,29.77,NNE,27,2.0,14.0,63,-99.99,,,-99.99,,2013-03-26 03:22:00,
2013-03-25 23:34:00,36.0,25.0,29.77,NNE,27,2.0,14.0,63,-99.99,,,-99.99,,2013-03-26 03:34:00,
2013-03-25 23:42:00,36.0,25.0,29.77,NNE,27,2.0,14.0,63,-99.99,,,-99.99,,2013-03-26 03:42:00,
2013-03-25 23:53:00,36.0,25.0,29.78,ENE,61,4.0,16.0,63,-99.99,,,-99.99,,2013-03-26 03:53:00,